CW0238 Weather Reports


Display with metric or nautical units.
time (UTC)temp
F
wind
direction
speed
MPH
gust
MPH
rain 1hr
in
rain 24hr
in
rain mn
in
humidity
%
barometer
mb
20260509200625 77 136 1.0 4.0 0.00 0.00 0.00 47 1008.4
20260509200347 78 136 1.0 4.0 0.00 0.00 0.00 46 1008.5
20260509195625 77 248 1.0 6.0 0.00 0.00 0.00 49 1008.5
20260509195122 77 261 1.0 6.0 0.00 0.00 0.00 45 1008.6
20260509194623 77 166 1.0 4.0 0.00 0.00 0.00 48 1008.7
20260509194121 77 273 1.0 4.0 0.00 0.00 0.00 46 1008.7
20260509193846 77 267 1.0 4.0 0.00 0.00 0.00 46 1008.8
20260509193122 78 71 1.0 3.0 0.00 0.00 0.00 49 1008.7
20260509192838 76 257 1.0 3.0 0.00 0.00 0.00 50 1008.7
20260509192119 76 236 1.0 4.0 0.00 0.00 0.00 48 1008.8
20260509191618 77 132 1.0 4.0 0.00 0.00 0.00 50 1008.9
20260509191121 76 246 1.0 4.0 0.00 0.00 0.00 49 1008.9
20260509190618 76 232 1.0 3.0 0.00 0.00 0.00 51 1008.9
20260509190117 76 164 1.0 3.0 0.00 0.00 0.00 49 1008.9
20260509185330 76 251 1.0 7.0 0.00 0.00 0.00 49 1009.0
20260509184610 76 248 1.0 7.0 0.00 0.00 0.00 49 1008.9
20260509184109 75 240 1.0 5.0 0.00 0.00 0.00 51 1009.1
20260509183606 76 159 1.0 4.0 0.00 0.00 0.00 51 1009.1
20260509183106 75 335 1.0 4.0 0.00 0.00 0.00 54 1009.1
20260509182603 74 355 1.0 8.0 0.00 0.00 0.00 53 1009.1
20260509182327 74 270 1.0 8.0 0.00 0.00 0.00 53 1009.1
20260509181604 74 139 1.0 7.0 0.00 0.00 0.00 53 1009.1
20260509181057 74 238 1.0 7.0 0.00 0.00 0.00 57 1009.1
20260509180555 74 267 1.0 6.0 0.00 0.00 0.00 52 1009.1
20260509180057 74 275 1.0 5.0 0.00 0.00 0.00 52 1009.1
20260509175550 74 136 1.0 4.0 0.00 0.00 0.00 53 1009.2
20260509175048 74 268 1.0 4.0 0.00 0.00 0.00 57 1009.2
20260509174826 73 286 1.0 6.0 0.00 0.00 0.00 57 1009.2
20260509174045 73 277 1.0 7.0 0.00 0.00 0.00 53 1009.2
20260509173542 73 263 1.0 7.0 0.00 0.00 0.00 54 1009.2
20260509173046 73 355 1.0 4.0 0.00 0.00 0.00 56 1009.3
20260509172539 72 253 1.0 4.0 0.00 0.00 0.00 59 1009.3
20260509172041 72 295 0.0 4.0 0.00 0.00 0.00 57 1009.3
20260509171757 73 237 1.0 4.0 0.00 0.00 0.00 53 1009.3
20260509171037 72 182 1.0 4.0 0.00 0.00 0.00 56 1009.3
20260509170534 71 224 1.0 5.0 0.00 0.00 0.00 59 1009.3
20260509170036 71 261 1.0 5.0 0.00 0.00 0.00 59 1009.4
20260509165536 71 236 1.0 5.0 0.00 0.00 0.00 58 1009.3
20260509165038 70 355 2.0 7.0 0.00 0.00 0.00 59 1009.4
20260509164531 71 180 1.0 7.0 0.00 0.00 0.00 56 1009.4
20260509164031 71 341 1.0 6.0 0.00 0.00 0.00 61 1009.4
20260509163528 71 276 1.0 4.0 0.00 0.00 0.00 58 1009.4
20260509163024 71 294 1.0 4.0 0.00 0.00 0.00 59 1009.3
20260509162525 70 159 1.0 4.0 0.00 0.00 0.00 60 1009.2
20260509162022 69 199 1.0 3.0 0.00 0.00 0.00 61 1009.1
20260509161518 70 199 1.0 3.0 0.00 0.00 0.00 62 1009.1
20260509161018 70 20 1.0 3.0 0.00 0.00 0.00 63 1009.1
20260509160517 69 236 0.0 3.0 0.00 0.00 0.00 62 1009.1
20260509160011 69 250 1.0 7.0 0.00 0.00 0.00 62 1009.2
20260509155747 69 213 1.0 7.0 0.00 0.00 0.00 62 1009.2
20260509155009 69 194 1.0 6.0 0.00 0.00 0.00 63 1009.1
20260509154508 69 285 0.0 4.0 0.00 0.00 0.00 64 1009.1
20260509154007 68 286 0.0 7.0 0.00 0.00 0.00 65 1009.1
20260509153507 68 334 0.0 7.0 0.00 0.00 0.00 66 1009.1
20260509153007 67 263 0.0 4.0 0.00 0.00 0.00 66 1009.0
20260509152725 67 161 1.0 4.0 0.00 0.00 0.00 66 1009.0
20260509152237 67 200 1.0 5.0 0.00 0.00 0.00 66 1009.0
20260509151502 66 222 1.0 7.0 0.00 0.00 0.00 66 1009.1
20260509151000 67 343 1.0 7.0 0.00 0.00 0.00 66 1009.1
20260509150456 66 235 1.0 6.0 0.00 0.00 0.00 69 1009.0
20260509150221 65 234 0.0 6.0 0.00 0.00 0.00 68 1008.9
20260509145453 65 320 0.0 3.0 0.00 0.00 0.00 70 1008.9
20260509145221 65 240 0.0 2.0 0.00 0.00 0.00 69 1009.0
20260509143952 64 220 0.0 4.0 0.00 0.00 0.00 72 1008.9
20260509143453 64 265 0.0 3.0 0.00 0.00 0.00 72 1008.9
20260509142953 64 206 0.0 2.0 0.00 0.00 0.00 72 1008.9
20260509142453 64 206 0.0 2.0 0.00 0.00 0.00 72 1008.9
20260509141948 64 199 0.0 2.0 0.00 0.00 0.00 73 1008.8
20260509141445 63 289 0.0 3.0 0.00 0.00 0.00 73 1008.9
20260509140945 63 167 0.0 3.0 0.00 0.00 0.00 74 1008.9
20260509140440 62 131 0.0 2.0 0.00 0.00 0.00 74 1008.9
20260509135938 62 121 0.0 2.0 0.00 0.00 0.00 74 1008.8
20260509135703 61 263 0.0 1.0 0.00 0.00 0.00 75 1008.8
20260509134933 61 266 0.0 1.0 0.00 0.00 0.00 75 1008.8
20260509134432 60 266 0.0 1.0 0.00 0.00 0.00 77 1008.8
20260509133933 60 266 0.0 1.0 0.00 0.00 0.00 79 1008.9
20260509133431 59 267 0.0 0.0 0.00 0.00 0.00 81 1008.9
20260509132931 59 267 0.0 0.0 0.00 0.00 0.00 81 1008.9
20260509132658 59 267 0.0 0.0 0.00 0.00 0.00 80 1008.8
20260509131925 59 267 0.0 0.0 0.00 0.00 0.00 80 1008.7
20260509131424 59 267 0.0 0.0 0.00 0.00 0.00 81 1008.8
20260509130924 59 267 0.0 0.0 0.00 0.00 0.00 82 1008.8
20260509130419 58 266 0.0 0.0 0.00 0.00 0.00 82 1008.8
20260509125919 58 266 0.0 0.0 0.00 0.00 0.00 82 1008.7
20260509125638 58 267 0.0 0.0 0.00 0.00 0.00 82 1008.7
20260509124916 58 266 0.0 0.0 0.00 0.00 0.00 82 1008.6
20260509124417 58 266 0.0 1.0 0.00 0.00 0.00 83 1008.6
20260509123915 58 266 0.0 1.0 0.00 0.00 0.00 84 1008.5
20260509123414 58 136 0.0 0.0 0.00 0.00 0.00 84 1008.6
20260509122915 57 136 0.0 0.0 0.00 0.00 0.00 84 1008.6
20260509122414 57 136 0.0 0.0 0.00 0.00 0.00 84 1008.6
20260509121911 57 136 0.0 0.0 0.00 0.00 0.00 84 1008.6
20260509121414 57 136 0.0 0.0 0.00 0.00 0.00 85 1008.6
20260509120910 57 136 0.0 0.0 0.00 0.00 0.00 84 1008.6
20260509120408 57 136 0.0 0.0 0.00 0.00 0.00 84 1008.5
20260509115907 56 136 0.0 0.0 0.00 0.00 0.00 84 1008.3
20260509115408 57 136 0.0 0.0 0.00 0.00 0.00 83 1008.4
20260509114910 57 136 0.0 0.0 0.00 0.00 0.00 83 1008.5
20260509114636 57 136 0.0 0.0 0.00 0.00 0.00 83 1008.4
20260509113901 57 136 0.0 0.0 0.00 0.00 0.00 83 1008.3
20260509113619 57 136 0.0 0.0 0.00 0.00 0.00 83 1008.1
20260509112855 57 136 0.0 0.0 0.00 0.00 0.00 84 1007.8
20260509112354 57 136 0.0 0.0 0.00 0.00 0.00 84 1007.9
20260509111858 57 136 0.0 0.0 0.00 0.00 0.00 84 1007.8
20260509111349 57 136 0.0 0.0 0.00 0.00 0.00 83 1007.8
20260509110848 57 136 0.0 0.0 0.00 0.00 0.00 83 1007.8
20260509110352 57 136 0.0 0.0 0.00 0.00 0.00 83 1007.5
20260509110110 57 136 0.0 0.0 0.00 0.00 0.00 82 1007.6
20260509105347 57 136 0.0 0.0 0.00 0.00 0.00 82 1007.7
20260509104847 57 136 0.0 0.0 0.00 0.00 0.00 82 1007.6
20260509104348 57 136 0.0 0.0 0.00 0.00 0.00 81 1007.5
20260509103849 57 136 0.0 0.0 0.00 0.00 0.00 81 1007.4
20260509103343 57 136 0.0 0.0 0.00 0.00 0.00 81 1007.4
20260509102840 57 136 0.0 0.0 0.00 0.00 0.00 81 1007.3
20260509102344 57 136 0.0 0.0 0.00 0.00 0.00 80 1007.4
20260509102059 57 136 0.0 0.0 0.00 0.00 0.00 79 1007.5
20260509101336 57 136 0.0 0.0 0.00 0.00 0.00 78 1007.5
20260509100838 57 136 0.0 0.0 0.00 0.00 0.00 79 1007.8
20260509100333 57 136 0.0 0.0 0.00 0.00 0.00 77 1008.0
20260509095831 57 136 0.0 0.0 0.00 0.00 0.00 77 1008.0
20260509094825 58 136 0.0 0.0 0.00 0.00 0.00 75 1007.8
20260509094324 58 136 0.0 0.0 0.00 0.00 0.00 74 1007.9
20260509093826 58 136 0.0 0.0 0.00 0.00 0.00 73 1007.9
20260509093545 58 136 0.0 0.0 0.00 0.00 0.00 73 1007.9
20260509092822 58 136 0.0 0.0 0.00 0.00 0.00 72 1007.9
20260509091820 58 136 0.0 0.0 0.00 0.00 0.00 71 1007.9
20260509091319 59 136 0.0 0.0 0.00 0.00 0.00 70 1008.1
20260509090818 59 136 0.0 0.0 0.00 0.00 0.00 68 1008.0
20260509090535 59 136 0.0 0.0 0.00 0.00 0.00 67 1008.1
20260509085815 60 136 0.0 0.0 0.00 0.00 0.00 66 1008.3
20260509085533 60 136 0.0 0.0 0.00 0.00 0.00 66 1008.3
20260509084809 60 136 0.0 0.0 0.00 0.00 0.00 65 1008.2
20260509084308 60 136 0.0 0.0 0.00 0.00 0.00 65 1008.2
20260509083306 60 136 0.0 0.0 0.00 0.00 0.00 63 1008.1
20260509082805 60 136 0.0 0.0 0.00 0.00 0.00 64 1008.0
20260509082307 60 136 0.0 0.0 0.00 0.00 0.00 63 1007.9
20260509081759 61 136 0.0 2.0 0.00 0.00 0.00 62 1007.9
20260509081301 61 136 0.0 2.0 0.00 0.00 0.00 61 1008.0
20260509080801 62 136 0.0 2.0 0.00 0.00 0.00 60 1008.1
20260509080256 62 136 0.0 3.0 0.00 0.00 0.00 60 1008.0
20260509080026 62 254 0.0 3.0 0.00 0.00 0.00 60 1007.8
20260509075257 62 150 0.0 2.0 0.00 0.00 0.00 60 1007.8
20260509074756 62 214 0.0 2.0 0.00 0.00 0.00 59 1007.8
20260509074255 62 202 0.0 4.0 0.00 0.00 0.00 59 1007.7
20260509074015 62 256 0.0 4.0 0.00 0.00 0.00 57 1007.8
20260509073253 62 269 0.0 2.0 0.00 0.00 0.00 57 1007.8
20260509072753 62 266 0.0 2.0 0.00 0.00 0.00 57 1007.8
20260509072247 62 254 0.0 1.0 0.00 0.00 0.00 57 1007.9
20260509071247 63 254 0.0 3.0 0.00 0.00 0.00 56 1008.1
20260509070746 62 199 0.0 2.0 0.00 0.00 0.00 56 1008.0
20260509070245 62 103 0.0 1.0 0.00 0.00 0.00 57 1008.1
20260509065748 62 103 0.0 1.0 0.00 0.00 0.00 55 1008.1
20260509065506 62 103 0.0 1.0 0.00 0.00 0.00 57 1008.1
20260509065001 62 224 0.0 2.0 0.00 0.00 0.00 55 1008.3
20260509064241 62 225 0.0 2.0 0.00 0.00 0.00 55 1008.3
20260509063734 62 215 0.0 2.0 0.00 0.00 0.00 55 1008.5
20260509063234 62 214 0.0 2.0 0.00 0.00 0.00 54 1008.5
20260509062738 62 212 0.0 1.0 0.00 0.00 0.00 58 1008.6
20260509062229 62 210 0.0 1.0 0.00 0.00 0.00 58 1008.6
20260509061729 62 210 0.0 1.0 0.00 0.00 0.00 58 1008.6
20260509061232 62 210 0.0 1.0 0.00 0.00 0.00 59 1008.6
20260509060727 61 211 0.0 0.0 0.00 0.00 0.00 60 1008.6
20260509060226 61 211 0.0 0.0 0.00 0.00 0.00 60 1008.7
20260509055726 61 211 0.0 0.0 0.00 0.00 0.00 61 1008.6
20260509055451 61 211 0.0 0.0 0.00 0.00 0.00 61 1008.6
20260509054724 61 211 0.0 0.0 0.00 0.00 0.00 62 1008.6
20260509054220 61 211 0.0 0.0 0.00 0.00 0.00 59 1008.6
20260509053719 61 211 0.0 0.0 0.00 0.00 0.00 61 1008.6
20260509053221 61 211 0.0 0.0 0.00 0.00 0.00 60 1008.6
20260509052716 62 211 0.0 0.0 0.00 0.00 0.00 59 1008.5
20260509052441 62 211 0.0 0.0 0.00 0.00 0.00 58 1008.5
20260509051716 62 211 0.0 0.0 0.00 0.00 0.00 59 1008.5
20260509051214 61 211 0.0 0.0 0.00 0.00 0.00 61 1008.5
20260509050716 61 211 0.0 0.0 0.00 0.00 0.00 62 1008.5
20260509050215 61 211 0.0 0.0 0.00 0.00 0.00 64 1008.5
20260509045715 61 211 0.0 0.0 0.00 0.00 0.00 64 1008.6
20260509045211 60 211 0.0 0.0 0.00 0.00 0.00 64 1008.6
20260509044709 60 211 0.0 0.0 0.00 0.00 0.00 65 1008.6
20260509044212 60 211 0.0 0.0 0.00 0.00 0.00 64 1008.6
20260509043710 60 211 0.0 0.0 0.00 0.00 0.00 65 1008.6
20260509043212 60 211 0.0 0.0 0.00 0.00 0.00 65 1008.6
20260509042703 60 211 0.0 0.0 0.00 0.00 0.00 65 1008.6
20260509042201 60 211 0.0 0.0 0.00 0.00 0.00 64 1008.6
20260509041706 60 211 0.0 0.0 0.00 0.00 0.00 63 1008.7
20260509041157 60 211 0.0 0.0 0.00 0.00 0.00 61 1008.8
20260509040929 60 211 0.0 0.0 0.00 0.00 0.00 62 1008.8
20260509040157 61 211 0.0 0.0 0.00 0.00 0.00 62 1008.7
20260509035654 61 211 0.0 0.0 0.00 0.00 0.00 61 1008.8
20260509035154 61 211 0.0 0.0 0.00 0.00 0.00 61 1008.8
20260509034654 61 211 0.0 0.0 0.00 0.00 0.00 63 1008.8
20260509034147 61 211 0.0 0.0 0.00 0.00 0.00 62 1008.8
20260509033648 61 211 0.0 0.0 0.00 0.00 0.00 59 1008.9
20260509033147 61 211 0.0 0.0 0.00 0.00 0.00 61 1009.0
20260509032919 61 211 0.0 0.0 0.00 0.00 0.00 59 1009.0
20260509032147 61 211 0.0 0.0 0.00 0.00 0.00 59 1009.0
20260509031641 61 211 0.0 0.0 0.00 0.00 0.00 58 1008.9
20260509031409 62 211 0.0 0.0 0.00 0.00 0.00 58 1009.0
20260509030641 61 211 0.0 0.0 0.00 0.00 0.00 59 1009.0
20260509030135 61 211 0.0 0.0 0.00 0.00 0.00 59 1009.0
20260509025634 61 211 0.0 0.0 0.00 0.00 0.00 59 1009.1
20260509025133 61 211 0.0 0.0 0.00 0.00 0.00 62 1009.1
20260509024631 61 211 0.0 0.0 0.00 0.00 0.00 60 1009.2
20260509024130 62 211 0.0 0.0 0.00 0.00 0.00 62 1009.3
20260509023850 62 211 0.0 0.0 0.00 0.00 0.00 61 1009.4
20260509023134 61 211 0.0 0.0 0.00 0.00 0.00 62 1009.3
20260509022631 61 211 0.0 0.0 0.00 0.00 0.00 61 1009.4
20260509022125 61 211 0.0 0.0 0.00 0.00 0.00 59 1009.6
20260509021624 61 211 0.0 0.0 0.00 0.00 0.00 60 1009.6
20260509021125 61 211 0.0 0.0 0.00 0.00 0.00 60 1009.5
20260509020619 61 211 0.0 0.0 0.00 0.00 0.00 60 1009.4
20260509020120 61 211 0.0 0.0 0.00 0.00 0.00 60 1009.4
20260509015619 61 211 0.0 0.0 0.00 0.00 0.00 59 1009.4
20260509015113 61 211 0.0 0.0 0.00 0.00 0.00 59 1009.4
20260509014612 62 211 0.0 0.0 0.00 0.00 0.00 61 1009.4
20260509014113 62 211 0.0 0.0 0.00 0.00 0.00 61 1009.3
20260509013607 62 211 0.0 0.0 0.00 0.00 0.00 64 1009.3
20260509013326 63 211 0.0 0.0 0.00 0.00 0.00 58 1009.4
20260509012607 63 211 0.0 0.0 0.00 0.00 0.00 56 1009.3
20260509012105 62 211 0.0 0.0 0.00 0.00 0.00 56 1009.3
20260509011605 62 211 0.0 0.0 0.00 0.00 0.00 55 1009.5
20260509011106 63 211 0.0 0.0 0.00 0.00 0.00 55 1009.4
20260509010606 63 211 0.0 0.0 0.00 0.00 0.00 54 1009.4
20260509010105 63 211 0.0 0.0 0.00 0.00 0.00 53 1009.3
20260509005605 63 211 0.0 0.0 0.00 0.00 0.00 53 1009.4
20260509005327 64 211 0.0 0.0 0.00 0.00 0.00 53 1009.4
20260509004821 65 211 0.0 0.0 0.00 0.00 0.00 55 1009.4
20260509004056 65 211 0.0 0.0 0.00 0.00 0.00 53 1009.4
20260509003558 66 211 0.0 0.0 0.00 0.00 0.00 51 1009.4
20260509003049 66 211 0.0 1.0 0.00 0.00 0.00 48 1009.4
20260509002548 67 211 0.0 1.0 0.00 0.00 0.00 46 1009.5
20260509002052 68 211 0.0 0.0 0.00 0.00 0.00 45 1009.4
20260509001548 68 211 0.0 1.0 0.00 0.00 0.00 45 1009.4
20260509001047 68 211 0.0 1.0 0.00 0.00 0.00 44 1009.4
20260509000547 68 211 0.0 1.0 0.00 0.00 0.00 44 1009.4
20260509000048 69 211 0.0 1.0 0.00 0.00 0.00 43 1009.4
20260508235550 69 211 0.0 2.0 0.00 0.00 0.00 43 1009.5
20260508235041 69 211 0.0 2.0 0.00 0.00 0.00 42 1009.5
20260508234808 70 161 0.0 2.0 0.00 0.00 0.00 42 1009.6
20260508234044 70 136 0.0 1.0 0.00 0.00 0.00 43 1009.6
20260508233535 70 136 1.0 4.0 0.00 0.00 0.00 41 1009.6
20260508233036 70 135 1.0 4.0 0.00 0.00 0.00 40 1009.5
20260508232538 71 221 1.0 3.0 0.00 0.00 0.00 40 1009.5
20260508232034 71 173 1.0 3.0 0.00 0.00 0.00 41 1009.6
20260508231533 71 173 1.0 4.0 0.00 0.00 0.00 41 1009.6
20260508231034 71 173 1.0 4.0 0.00 0.00 0.00 39 1009.6
20260508230533 71 142 1.0 4.0 0.00 0.00 0.00 39 1009.6
20260508230035 71 208 1.0 4.0 0.00 0.00 0.00 41 1009.6
20260508225528 71 170 1.0 6.0 0.00 0.00 0.00 40 1009.7
20260508225026 71 169 1.0 6.0 0.00 0.00 0.00 39 1009.7
20260508224530 71 195 1.0 4.0 0.00 0.00 0.00 40 1010.0
20260508224024 71 207 2.0 4.0 0.00 0.00 0.00 39 1009.8
20260508223523 72 138 2.0 6.0 0.00 0.00 0.00 40 1010.0
20260508223025 72 207 2.0 6.0 0.00 0.00 0.00 39 1010.0
20260508222746 72 231 1.0 5.0 0.00 0.00 0.00 40 1009.8
20260508222023 72 177 1.0 3.0 0.00 0.00 0.00 42 1009.7
20260508221521 71 206 1.0 3.0 0.00 0.00 0.00 41 1009.7
20260508220740 73 180 1.0 4.0 0.00 0.00 0.00 39 1009.5
20260508220016 73 158 1.0 4.0 0.00 0.00 0.00 39 1009.5
20260508215517 73 242 1.0 4.0 0.00 0.00 0.00 38 1009.4
20260508215016 73 130 1.0 8.0 0.00 0.00 0.00 38 1009.4
20260508214517 74 259 1.0 8.0 0.00 0.00 0.00 38 1009.4
20260508214012 73 138 2.0 4.0 0.00 0.00 0.00 38 1009.5
20260508213510 73 157 2.0 9.0 0.00 0.00 0.00 37 1009.5
20260508213011 74 190 2.0 9.0 0.00 0.00 0.00 38 1009.6
20260508212509 74 244 1.0 8.0 0.00 0.00 0.00 38 1009.7
20260508212008 74 264 2.0 6.0 0.00 0.00 0.00 38 1009.7
20260508211509 73 146 2.0 7.0 0.00 0.00 0.00 38 1009.7
20260508210509 75 125 1.0 6.0 0.00 0.00 0.00 36 1010.0
20260508210004 73 225 2.0 5.0 0.00 0.00 0.00 39 1010.2
20260508205502 74 213 1.0 7.0 0.00 0.00 0.00 36 1010.2
20260508205229 74 274 1.0 7.0 0.00 0.00 0.00 37 1010.1
20260508204457 73 103 1.0 6.0 0.00 0.00 0.00 36 1010.3
20260508203956 73 181 1.0 5.0 0.00 0.00 0.00 37 1010.4
20260508203457 74 149 1.0 4.0 0.00 0.00 0.00 39 1010.5
20260508202952 74 173 1.0 8.0 0.00 0.00 0.00 37 1010.5
20260508202450 74 215 2.0 8.0 0.00 0.00 0.00 36 1010.7
20260508201949 74 161 2.0 5.0 0.00 0.00 0.00 37 1010.5
20260508201447 74 148 1.0 7.0 0.00 0.00 0.00 37 1010.6